FW1177 Weather Reports


time (UTC)temp
C
wind
direction
speed
KPH
gust
KPH
rain 1hr
cm
rain 24hr
cm
rain mn
cm
humidity
%
barometer
mb
20260509235530 25 202 1.6 3.2 0.00 0.41 0.23 78 1036.3
20260509234629 26 201 0.0 1.6 0.00 0.41 0.23 78 1036.2
20260509233631 26 180 1.6 1.6 0.00 0.41 0.23 77 1036.0
20260509232730 26 180 0.0 0.0 0.00 0.41 0.23 75 1035.9
20260509231729 26 112 0.0 0.0 0.00 0.41 0.23 75 1036.1
20260509230731 26 135 1.6 6.4 0.00 0.41 0.23 75 1036.1
20260509225730 26 157 0.0 0.0 0.00 0.41 0.23 76 1036.1
20260509224732 26 157 0.0 1.6 0.00 0.41 0.23 76 1035.9
20260509223731 26 157 0.0 0.0 0.00 0.41 0.23 75 1036.0
20260509222829 26 164 0.0 1.6 0.00 0.41 0.23 75 1035.9
20260509221829 26 157 0.0 3.2 0.00 0.41 0.23 74 1035.9
20260509220829 26 180 0.0 1.6 0.00 0.41 0.23 76 1035.9
20260509215831 26 202 0.0 0.0 0.00 0.41 0.23 76 1035.8
20260509214830 26 244 0.0 3.2 0.00 0.41 0.23 77 1035.9
20260509214731 26 247 0.0 0.0 0.00 0.41 0.23 77 1035.9
20260509213828 26 180 0.0 1.6 0.00 0.41 0.23 77 1036.0
20260509212829 25 180 0.0 0.0 0.00 0.41 0.23 77 1036.4
20260509212747 25 180 0.0 0.0 0.00 0.41 0.23 77 1036.3
20260509205730 25 202 0.0 0.0 0.03 0.41 0.23 81 1036.6
20260509204730 25 360 0.0 0.0 0.03 0.41 0.23 81 1036.6
20260509203829 25 135 0.0 0.0 0.03 0.41 0.23 80 1036.7
20260509202831 25 135 0.0 0.0 0.03 0.41 0.23 79 1036.9
20260509201929 25 180 0.0 0.0 0.03 0.41 0.23 80 1037.0
20260509200945 25 61 0.0 4.8 0.03 0.41 0.23 80 1037.0
20260509193930 25 81 1.6 4.8 0.00 0.38 0.20 86 1037.5
20260509191930 23 157 0.0 0.0 0.00 0.38 0.20 87 1037.7
20260509191029 23 315 0.0 0.0 0.00 0.38 0.20 88 1038.0
20260509190030 23 315 0.0 0.0 0.00 0.38 0.20 86 1038.2
20260509185930 23 315 0.0 0.0 0.00 0.38 0.20 87 1038.1
20260509185029 23 341 0.0 1.6 0.00 0.38 0.20 86 1038.0
20260509182030 23 135 0.0 0.0 0.00 0.38 0.20 88 1038.2
20260509181129 23 90 0.0 0.0 0.00 0.38 0.20 88 1038.2
20260509181029 23 90 0.0 0.0 0.00 0.38 0.20 88 1038.1
20260509180045 23 47 3.2 3.2 0.00 0.38 0.20 89 1038.2
20260509175129 23 112 0.0 0.0 0.00 0.38 0.20 90 1038.4
20260509172130 23 112 0.0 0.0 0.00 0.38 0.20 90 1038.4
20260509171129 23 112 0.0 0.0 0.00 0.38 0.20 89 1038.5
20260509170228 23 112 0.0 0.0 0.00 0.38 0.20 90 1038.5
20260509170129 23 112 0.0 0.0 0.00 0.38 0.20 91 1038.5
20260509170031 23 112 0.0 0.0 0.00 0.38 0.20 91 1038.4
20260509165030 23 360 0.0 0.0 0.00 0.38 0.20 91 1038.4
20260509164029 22 342 1.6 1.6 0.00 0.38 0.20 90 1038.4
20260509163128 22 112 0.0 0.0 0.00 0.38 0.20 91 1038.4
20260509163031 22 112 0.0 0.0 0.00 0.38 0.20 90 1038.4
20260509162048 22 71 0.0 4.8 0.00 0.38 0.20 93 1038.3
20260509160029 22 22 0.0 0.0 0.00 0.38 0.20 92 1038.2
20260509155048 22 22 1.6 3.2 0.00 0.38 0.20 94 1038.2
20260509154030 22 292 0.0 0.0 0.00 0.38 0.20 94 1038.2
20260509153031 21 360 0.0 1.6 0.00 0.38 0.20 95 1038.2
20260509152031 21 135 0.0 1.6 0.00 0.38 0.20 94 1038.2
20260509151046 21 135 1.6 3.2 0.00 0.38 0.20 96 1038.2
20260509150930 21 135 0.0 0.0 0.00 0.38 0.20 96 1038.2
20260509145929 21 135 0.0 0.0 0.00 0.38 0.20 95 1038.4
20260509144931 21 135 0.0 1.6 0.00 0.38 0.20 95 1038.5
20260509144829 21 135 0.0 0.0 0.00 0.38 0.20 96 1038.5
20260509142829 20 90 0.0 0.0 0.00 0.38 0.20 96 1038.6
20260509141749 20 90 0.0 0.0 0.00 0.38 0.20 97 1038.5
20260509135847 20 180 0.0 0.0 0.00 0.38 0.20 97 1038.7
20260509135746 20 180 0.0 0.0 0.00 0.38 0.20 97 1038.7
20260509134829 20 180 0.0 0.0 0.00 0.38 0.20 97 1038.8
20260509133848 20 180 0.0 0.0 0.00 0.38 0.20 98 1038.8
20260509131931 19 180 0.0 0.0 0.00 0.38 0.20 98 1038.4
20260509130930 19 180 0.0 0.0 0.00 0.38 0.20 98 1038.4
20260509130847 19 180 0.0 0.0 0.00 0.38 0.20 98 1038.4
20260509130748 19 180 0.0 0.0 0.00 0.38 0.20 97 1038.3
20260509125829 18 180 0.0 0.0 0.00 0.38 0.20 98 1038.2
20260509125730 18 180 0.0 0.0 0.00 0.38 0.20 98 1038.2
20260509123829 18 180 0.0 0.0 0.00 0.38 0.20 97 1038.2
20260509122847 18 180 0.0 0.0 0.00 0.38 0.20 97 1038.5
20260509121830 18 180 0.0 0.0 0.00 0.38 0.20 97 1038.5
20260509121747 18 180 0.0 0.0 0.00 0.38 0.20 98 1038.5
20260509120629 18 180 0.0 0.0 0.00 0.38 0.20 98 1038.5
20260509114630 18 180 0.0 0.0 0.00 0.38 0.20 98 1038.2
20260509113630 18 251 0.0 0.0 0.00 0.38 0.20 97 1038.0
20260509113529 18 270 0.0 0.0 0.00 0.38 0.20 98 1038.0
20260509112628 18 270 0.0 0.0 0.00 0.38 0.20 98 1037.7
20260509112529 18 270 0.0 0.0 0.00 0.38 0.20 98 1037.6
20260509111531 18 270 0.0 0.0 0.00 0.38 0.20 98 1037.4
20260509105630 18 45 0.0 0.0 0.00 0.41 0.20 98 1037.3
20260509104729 17 45 0.0 0.0 0.00 0.48 0.20 98 1037.3
20260509102728 18 45 0.0 0.0 0.10 0.48 0.20 98 1037.2
20260509101731 18 45 0.0 0.0 0.10 0.48 0.20 98 1037.3
20260509100647 18 45 0.0 0.0 0.10 0.48 0.20 98 1037.1
20260509095728 18 45 0.0 0.0 0.10 0.48 0.20 98 1037.1
20260509094730 18 45 0.0 0.0 0.10 0.48 0.20 98 1037.1
20260509093729 18 45 0.0 1.6 0.10 0.48 0.20 98 1037.6
20260509092729 18 45 0.0 0.0 0.00 0.38 0.10 97 1037.6
20260509091828 18 45 0.0 0.0 0.00 0.38 0.10 98 1037.6
20260509090847 18 45 0.0 0.0 0.00 0.38 0.10 98 1037.7
20260509085928 18 45 0.0 0.0 0.00 0.38 0.10 98 1037.5
20260509085829 18 45 0.0 0.0 0.00 0.38 0.10 97 1037.3
20260509083946 17 45 0.0 0.0 0.00 0.38 0.10 97 1037.6
20260509083029 18 45 0.0 0.0 0.00 0.38 0.10 97 1037.3
20260509082931 18 45 0.0 0.0 0.00 0.38 0.10 97 1037.4
20260509082028 17 45 0.0 0.0 0.00 0.38 0.10 96 1037.3
20260509081031 17 45 0.0 0.0 0.00 0.38 0.10 97 1037.5
20260509074047 18 45 0.0 0.0 0.03 0.38 0.10 97 1037.5
20260509073031 18 45 1.6 3.2 0.03 0.38 0.10 97 1037.2
20260509072128 18 45 0.0 0.0 0.03 0.38 0.10 97 1037.0
20260509072044 18 45 0.0 0.0 0.03 0.38 0.10 97 1036.9
20260509071130 18 45 0.0 0.0 0.03 0.38 0.10 97 1036.6
20260509065247 18 39 3.2 4.8 0.05 0.38 0.10 97 1036.6
20260509065130 18 7 3.2 4.8 0.05 0.38 0.10 97 1036.8
20260509064129 18 240 1.6 3.2 0.05 0.36 0.08 97 1036.8
20260509062131 18 292 3.2 4.8 0.08 0.36 0.08 96 1038.0
20260509061130 18 202 0.0 0.0 0.08 0.36 0.08 96 1038.5
20260509060130 18 135 1.6 3.2 0.05 0.33 0.05 95 1039.3
20260509055228 18 135 0.0 0.0 0.08 0.33 0.05 94 1039.4
20260509054228 18 22 0.0 0.0 0.05 0.30 0.03 95 1039.6
20260509054146 18 22 0.0 0.0 0.05 0.30 0.03 95 1039.6
20260509053131 18 315 0.0 0.0 0.05 0.28 0.00 94 1040.1
20260509053031 18 315 0.0 0.0 0.05 0.28 0.00 94 1040.0
20260509052029 18 22 0.0 0.0 0.05 0.28 0.00 93 1039.4
20260509051928 18 22 0.0 0.0 0.05 0.28 0.00 94 1039.5
20260509050930 18 22 0.0 1.6 0.18 0.28 0.00 94 1039.8
20260509050829 18 22 0.0 1.6 0.18 0.28 0.00 94 1039.8
20260509050731 18 20 3.2 8.0 0.18 0.28 0.00 94 1039.7
20260509045743 18 315 1.6 1.6 0.18 0.28 0.28 92 1039.1
20260509044745 18 273 3.2 4.8 0.15 0.25 0.25 91 1038.0
20260509043746 18 270 0.0 1.6 0.15 0.25 0.23 88 1038.5
20260509042843 18 40 1.6 3.2 0.13 0.23 0.23 85 1038.5
20260509042744 19 22 0.0 0.0 0.13 0.23 0.23 84 1038.7
20260509041744 20 2 1.6 3.2 0.13 0.23 0.23 77 1038.2
20260509041701 20 89 0.0 0.0 0.13 0.23 0.20 76 1038.3
20260509035700 20 202 3.2 4.8 0.00 0.10 0.10 74 1037.1
20260509033745 20 180 1.6 3.2 0.00 0.10 0.10 77 1038.0
20260509032759 20 180 0.0 1.6 0.00 0.10 0.10 78 1038.4
20260509031844 19 180 0.0 0.0 0.00 0.10 0.10 78 1038.5
20260509031744 19 180 0.0 0.0 0.00 0.10 0.10 78 1038.4
20260509030800 19 180 0.0 0.0 0.00 0.10 0.10 76 1038.1
20260509030646 19 180 0.0 0.0 0.00 0.10 0.10 77 1038.1
20260509025742 20 180 0.0 0.0 0.00 0.10 0.10 76 1037.9
20260509025659 20 180 0.0 0.0 0.00 0.10 0.10 76 1037.9
20260509024744 20 180 0.0 0.0 0.00 0.10 0.10 76 1037.7
20260509024643 20 180 0.0 0.0 0.00 0.10 0.10 77 1037.7
20260509023643 20 180 0.0 0.0 0.00 0.10 0.10 76 1037.5
20260509022644 19 180 0.0 0.0 0.00 0.10 0.10 75 1037.3
20260509021645 20 180 0.0 0.0 0.00 0.10 0.10 75 1037.2
20260509020644 20 180 0.0 0.0 0.00 0.10 0.10 74 1037.0
20260509015644 20 180 0.0 0.0 0.00 0.10 0.10 74 1037.0
20260509014644 20 180 0.0 0.0 0.00 0.10 0.10 71 1036.8
20260509013742 20 180 0.0 0.0 0.00 0.10 0.10 69 1036.6
20260509013700 20 180 0.0 0.0 0.00 0.10 0.10 69 1036.6
20260509011659 21 180 0.0 0.0 0.00 0.10 0.10 64 1036.4
20260509010744 22 180 0.0 0.0 0.00 0.10 0.10 64 1036.3
20260509005744 22 180 0.0 0.0 0.00 0.10 0.10 62 1036.4
20260509004644 22 180 0.0 0.0 0.00 0.10 0.10 61 1036.4
20260509003643 23 180 0.0 0.0 0.00 0.10 0.10 60 1036.2
20260509002742 23 180 0.0 0.0 0.00 0.10 0.10 59 1036.1
20260509001801 23 180 0.0 3.2 0.00 0.10 0.10 56 1036.1
20260509000858 23 180 0.0 3.2 0.00 0.10 0.10 57 1036.0